EW3608 Weather Reports


Display with metric or nautical units.
time (UTC)temp
F
wind
direction
speed
MPH
gust
MPH
rain 1hr
in
rain 24hr
in
rain mn
in
humidity
%
barometer
mb
20260905034516 76 335 0.0 2.0 0.00 0.00 0.00 36 1017.2
20260905034010 76 335 0.0 0.0 0.00 0.00 0.00 34 1017.2
20260905033511 77 335 0.0 2.0 0.00 0.00 0.00 35 1017.2
20260905033026 78 335 0.0 2.0 0.00 0.00 0.00 34 1017.2
20260905032513 78 67 0.0 2.0 0.00 0.00 0.00 32 1017.1
20260905032013 79 65 0.0 2.0 0.00 0.00 0.00 34 1017.1
20260905031515 80 67 0.0 2.0 0.00 0.00 0.00 32 1017.1
20260905031010 80 316 0.0 4.0 0.00 0.00 0.00 31 1017.0
20260905030510 80 300 1.0 4.0 0.00 0.00 0.00 30 1016.9
20260905030021 79 343 1.0 4.0 0.00 0.00 0.00 31 1016.9
20260905025511 79 9 0.0 2.0 0.00 0.00 0.00 31 1016.9
20260905025016 79 9 0.0 1.0 0.00 0.00 0.00 32 1016.9
20260905024553 79 9 0.0 2.0 0.00 0.00 0.00 34 1016.8
20260905024013 79 5 0.0 2.0 0.00 0.00 0.00 34 1016.7
20260905023508 79 110 0.0 2.0 0.00 0.00 0.00 36 1016.6
20260905023019 78 352 0.0 2.0 0.00 0.00 0.00 35 1016.4
20260905022508 78 212 0.0 2.0 0.00 0.00 0.00 36 1016.3
20260905022012 78 243 0.0 2.0 0.00 0.00 0.00 35 1016.3
20260905021528 78 109 0.0 2.0 0.00 0.00 0.00 37 1016.2
20260905021013 78 269 0.0 2.0 0.00 0.00 0.00 35 1016.1
20260905020514 78 259 0.0 2.0 0.00 0.00 0.00 35 1016.1
20260905020033 78 110 0.0 2.0 0.00 0.00 0.00 37 1016.1
20260905015507 79 340 0.0 2.0 0.00 0.00 0.00 36 1015.9
20260905015008 79 232 1.0 2.0 0.00 0.00 0.00 35 1015.9
20260905014518 80 119 0.0 2.0 0.00 0.00 0.00 34 1015.9
20260905014015 81 119 0.0 2.0 0.00 0.00 0.00 34 1015.8
20260905013515 81 119 0.0 2.0 0.00 0.00 0.00 33 1015.7
20260905013027 82 119 0.0 0.0 0.00 0.00 0.00 32 1015.7
20260905012517 83 119 0.0 1.0 0.00 0.00 0.00 31 1015.7
20260905012017 83 119 0.0 1.0 0.00 0.00 0.00 30 1015.6
20260905011512 84 119 0.0 1.0 0.00 0.00 0.00 30 1015.6
20260905011009 85 119 0.0 0.0 0.00 0.00 0.00 30 1015.6
20260905010512 85 119 0.0 0.0 0.00 0.00 0.00 29 1015.6
20260905010023 86 119 0.0 0.0 0.00 0.00 0.00 28 1015.6
20260905005515 86 119 0.0 2.0 0.00 0.00 0.00 27 1015.5
20260905005014 87 119 0.0 2.0 0.00 0.00 0.00 27 1015.5
20260905004532 87 119 0.0 2.0 0.00 0.00 0.00 26 1015.5
20260905004016 88 122 0.0 2.0 0.00 0.00 0.00 26 1015.5
20260905003508 88 111 0.0 2.0 0.00 0.00 0.00 25 1015.5
20260905003018 89 95 0.0 2.0 0.00 0.00 0.00 24 1015.5
20260905002503 89 84 0.0 3.0 0.00 0.00 0.00 24 1015.5
20260905002003 90 100 0.0 3.0 0.00 0.00 0.00 23 1015.4
20260905001504 90 92 0.0 3.0 0.00 0.00 0.00 22 1015.4
20260905001004 91 146 0.0 3.0 0.00 0.00 0.00 23 1015.4
20260905000504 91 92 1.0 5.0 0.00 0.00 0.00 22 1015.4
20260905000008 92 85 1.0 7.0 0.00 0.00 0.00 21 1015.4
20260904235510 92 65 2.0 7.0 0.00 0.00 0.00 20 1015.3
20260904235012 92 194 0.0 3.0 0.00 0.00 0.00 17 1015.2
20260904234503 93 40 1.0 3.0 0.00 0.00 0.00 18 1015.2
20260904234003 93 127 0.0 3.0 0.00 0.00 0.00 18 1015.1
20260904233504 93 74 2.0 3.0 0.00 0.00 0.00 17 1015.1
20260904233006 93 24 2.0 3.0 0.00 0.00 0.00 17 1015.1
20260904232506 93 351 1.0 4.0 0.00 0.00 0.00 17 1015.1
20260904232006 94 44 3.0 4.0 0.00 0.00 0.00 18 1015.0
20260904231513 94 69 1.0 4.0 0.00 0.00 0.00 18 1015.0
20260904231009 93 46 0.0 3.0 0.00 0.00 0.00 19 1015.0
20260904230502 93 119 0.0 3.0 0.00 0.00 0.00 18 1015.0
20260904230004 92 52 2.0 3.0 0.00 0.00 0.00 18 1015.1
20260904225502 92 51 1.0 2.0 0.00 0.00 0.00 18 1015.1
20260904225005 92 38 0.0 3.0 0.00 0.00 0.00 19 1015.2
20260904224508 93 59 0.0 3.0 0.00 0.00 0.00 18 1015.2
20260904224008 93 32 1.0 5.0 0.00 0.00 0.00 18 1015.2
20260904223511 94 165 0.0 5.0 0.00 0.00 0.00 18 1015.2
20260904223023 94 120 1.0 5.0 0.00 0.00 0.00 17 1015.2
20260904222507 94 66 2.0 5.0 0.00 0.00 0.00 17 1015.1
20260904222003 95 43 1.0 3.0 0.00 0.00 0.00 16 1015.1
20260904221506 95 93 0.0 2.0 0.00 0.00 0.00 16 1015.2
20260904221006 95 32 1.0 4.0 0.00 0.00 0.00 16 1015.2
20260904220508 95 145 1.0 7.0 0.00 0.00 0.00 16 1015.2
20260904220012 95 196 1.0 7.0 0.00 0.00 0.00 17 1015.2
20260904215511 95 66 1.0 4.0 0.00 0.00 0.00 16 1015.2
20260904215013 95 241 1.0 6.0 0.00 0.00 0.00 16 1015.2
20260904214503 94 158 1.0 6.0 0.00 0.00 0.00 17 1015.2
20260904214003 94 14 1.0 6.0 0.00 0.00 0.00 17 1015.2
20260904213505 94 46 3.0 7.0 0.00 0.00 0.00 18 1015.2
20260904213007 94 61 1.0 10.0 0.00 0.00 0.00 18 1015.3
20260904212506 94 35 5.0 10.0 0.00 0.00 0.00 17 1015.2
20260904212010 94 196 1.0 6.0 0.00 0.00 0.00 18 1015.3
20260904211518 94 53 1.0 6.0 0.00 0.00 0.00 17 1015.4
20260904211013 94 169 2.0 9.0 0.00 0.00 0.00 18 1015.3
20260904210503 94 200 2.0 9.0 0.00 0.00 0.00 18 1015.4
20260904210004 94 113 1.0 8.0 0.00 0.00 0.00 17 1015.4
20260904205504 94 51 3.0 7.0 0.00 0.00 0.00 17 1015.5
20260904205007 94 115 1.0 8.0 0.00 0.00 0.00 17 1015.6
20260904204513 94 132 1.0 8.0 0.00 0.00 0.00 17 1015.6
20260904204009 94 106 2.0 11.0 0.00 0.00 0.00 17 1015.7
20260904203511 94 134 4.0 11.0 0.00 0.00 0.00 17 1015.7
20260904203030 94 140 2.0 5.0 0.00 0.00 0.00 18 1015.9
20260904202503 94 96 1.0 10.0 0.00 0.00 0.00 18 1016.0
20260904202003 94 97 1.0 10.0 0.00 0.00 0.00 17 1016.1
20260904201506 94 146 3.0 10.0 0.00 0.00 0.00 17 1016.3
20260904201008 93 100 2.0 9.0 0.00 0.00 0.00 17 1016.3
20260904200509 93 77 2.0 9.0 0.00 0.00 0.00 17 1016.3
20260904200037 93 95 1.0 6.0 0.00 0.00 0.00 17 1016.3
20260904195512 93 129 2.0 6.0 0.00 0.00 0.00 16 1016.4
20260904195019 93 67 2.0 6.0 0.00 0.00 0.00 17 1016.4
20260904194503 93 134 2.0 8.0 0.00 0.00 0.00 17 1016.4
20260904194009 94 79 2.0 8.0 0.00 0.00 0.00 16 1016.4
20260904193505 93 176 2.0 6.0 0.00 0.00 0.00 16 1016.3
20260904193012 93 334 1.0 7.0 0.00 0.00 0.00 17 1016.4
20260904192511 92 153 2.0 7.0 0.00 0.00 0.00 18 1016.4
20260904192012 92 173 1.0 5.0 0.00 0.00 0.00 17 1016.4
20260904191525 92 144 2.0 5.0 0.00 0.00 0.00 18 1016.5
20260904191014 92 115 2.0 7.0 0.00 0.00 0.00 18 1016.5
20260904190504 92 136 2.0 7.0 0.00 0.00 0.00 19 1016.6
20260904190004 91 157 2.0 8.0 0.00 0.00 0.00 19 1016.6
20260904185504 91 68 3.0 8.0 0.00 0.00 0.00 19 1016.6
20260904185008 91 232 2.0 8.0 0.00 0.00 0.00 19 1016.6
20260904184517 91 133 2.0 8.0 0.00 0.00 0.00 19 1016.7
20260904184016 90 175 2.0 8.0 0.00 0.00 0.00 20 1016.8
20260904183513 90 61 1.0 10.0 0.00 0.00 0.00 20 1016.9
20260904183028 89 24 2.0 10.0 0.00 0.00 0.00 20 1017.1
20260904182502 90 15 3.0 9.0 0.00 0.00 0.00 20 1017.2
20260904182009 90 23 1.0 5.0 0.00 0.00 0.00 20 1017.3
20260904181507 90 129 2.0 7.0 0.00 0.00 0.00 20 1017.3
20260904181007 90 222 1.0 7.0 0.00 0.00 0.00 20 1017.3
20260904180511 89 206 1.0 4.0 0.00 0.00 0.00 22 1017.4
20260904180024 89 209 1.0 5.0 0.00 0.00 0.00 22 1017.4
20260904175513 88 192 2.0 5.0 0.00 0.00 0.00 22 1017.4
20260904175014 87 146 2.0 5.0 0.00 0.00 0.00 22 1017.4
20260904174505 87 45 1.0 5.0 0.00 0.00 0.00 24 1017.5
20260904174005 87 36 1.0 8.0 0.00 0.00 0.00 25 1017.5
20260904173506 86 84 2.0 8.0 0.00 0.00 0.00 25 1017.6
20260904173011 86 98 3.0 6.0 0.00 0.00 0.00 25 1017.5
20260904172514 86 324 2.0 5.0 0.00 0.00 0.00 26 1017.5
20260904172013 85 352 1.0 5.0 0.00 0.00 0.00 27 1017.5
20260904171550 84 327 1.0 4.0 0.00 0.00 0.00 29 1017.7
20260904171014 84 34 2.0 5.0 0.00 0.00 0.00 29 1017.7
20260904170503 83 323 1.0 5.0 0.00 0.00 0.00 28 1017.7
20260904170007 83 319 1.0 4.0 0.00 0.00 0.00 29 1017.7
20260904165508 82 59 2.0 6.0 0.00 0.00 0.00 30 1017.8
20260904165010 82 49 1.0 6.0 0.00 0.00 0.00 32 1017.9
20260904164518 81 5 1.0 4.0 0.00 0.00 0.00 32 1017.8
20260904164017 81 24 2.0 4.0 0.00 0.00 0.00 33 1017.9
20260904163514 80 38 1.0 4.0 0.00 0.00 0.00 32 1018.0
20260904163046 80 116 1.0 3.0 0.00 0.00 0.00 31 1018.0
20260904162509 79 349 1.0 4.0 0.00 0.00 0.00 31 1018.1
20260904162004 79 66 1.0 4.0 0.00 0.00 0.00 33 1018.1
20260904161514 78 38 1.0 3.0 0.00 0.00 0.00 34 1018.1
20260904161011 78 65 0.0 3.0 0.00 0.00 0.00 34 1018.0
20260904160510 77 340 1.0 3.0 0.00 0.00 0.00 33 1018.0
20260904160029 77 5 1.0 3.0 0.00 0.00 0.00 34 1018.0
20260904155516 76 34 1.0 3.0 0.00 0.00 0.00 35 1018.0
20260904155013 76 327 0.0 4.0 0.00 0.00 0.00 35 1018.0
20260904154509 76 42 2.0 4.0 0.00 0.00 0.00 35 1017.9
20260904154009 75 331 2.0 4.0 0.00 0.00 0.00 35 1017.9
20260904153510 75 324 1.0 2.0 0.00 0.00 0.00 36 1017.9
20260904153025 74 9 1.0 3.0 0.00 0.00 0.00 36 1017.8
20260904152512 74 325 1.0 3.0 0.00 0.00 0.00 35 1017.8
20260904152003 73 37 1.0 3.0 0.00 0.00 0.00 35 1017.7
20260904151503 72 9 1.0 3.0 0.00 0.00 0.00 36 1017.7
20260904151006 71 342 1.0 2.0 0.00 0.00 0.00 36 1017.7
20260904150503 71 69 1.0 2.0 0.00 0.00 0.00 35 1017.7
20260904150017 70 302 0.0 3.0 0.00 0.00 0.00 38 1017.6
20260904145508 69 248 0.0 3.0 0.00 0.00 0.00 39 1017.7
20260904145012 67 310 0.0 2.0 0.00 0.00 0.00 43 1017.7
20260904144524 67 334 0.0 2.0 0.00 0.00 0.00 44 1017.7
20260904144003 66 352 0.0 2.0 0.00 0.00 0.00 45 1017.6
20260904143504 65 333 0.0 2.0 0.00 0.00 0.00 45 1017.7
20260904143006 65 324 0.0 2.0 0.00 0.00 0.00 47 1017.7
20260904142507 64 352 0.0 2.0 0.00 0.00 0.00 48 1017.6
20260904142006 64 352 0.0 2.0 0.00 0.00 0.00 49 1017.7
20260904141516 63 352 1.0 2.0 0.00 0.00 0.00 51 1017.7
20260904141011 62 28 0.0 2.0 0.00 0.00 0.00 55 1017.7
20260904140519 62 29 0.0 2.0 0.00 0.00 0.00 58 1017.6
20260904140003 61 48 0.0 2.0 0.00 0.00 0.00 60 1017.4
20260904135504 60 59 1.0 2.0 0.00 0.00 0.00 61 1017.4
20260904135004 59 60 1.0 2.0 0.00 0.00 0.00 62 1017.3
20260904134509 59 192 0.0 2.0 0.00 0.00 0.00 61 1017.2
20260904134010 58 192 0.0 2.0 0.00 0.00 0.00 61 1017.1
20260904133510 57 190 0.0 2.0 0.00 0.00 0.00 59 1017.0
20260904133024 57 194 1.0 2.0 0.00 0.00 0.00 58 1017.0
20260904132518 56 274 0.0 2.0 0.00 0.00 0.00 62 1017.0
20260904132004 56 338 0.0 2.0 0.00 0.00 0.00 62 1017.0
20260904131506 56 339 0.0 2.0 0.00 0.00 0.00 64 1016.8
20260904131003 56 205 0.0 2.0 0.00 0.00 0.00 62 1016.9
20260904130507 56 177 0.0 2.0 0.00 0.00 0.00 61 1016.8
20260904130015 56 176 0.0 3.0 0.00 0.00 0.00 62 1016.8
20260904125510 56 168 0.0 3.0 0.00 0.00 0.00 59 1016.8
20260904125014 55 167 0.0 3.0 0.00 0.00 0.00 57 1016.7
20260904124530 55 174 0.0 2.0 0.00 0.00 0.00 60 1016.6
20260904124005 55 174 0.0 2.0 0.00 0.00 0.00 60 1016.5
20260904123505 55 211 1.0 2.0 0.00 0.00 0.00 60 1016.6
20260904123008 54 200 0.0 2.0 0.00 0.00 0.00 64 1016.6
20260904122508 54 191 0.0 2.0 0.00 0.00 0.00 63 1016.5
20260904122012 54 184 0.0 2.0 0.00 0.00 0.00 64 1016.5
20260904121523 54 184 0.0 2.0 0.00 0.00 0.00 64 1016.5
20260904121016 54 167 0.0 2.0 0.00 0.00 0.00 65 1016.4
20260904120512 54 177 0.0 2.0 0.00 0.00 0.00 65 1016.5
20260904120004 54 184 0.0 2.0 0.00 0.00 0.00 64 1016.3
20260904115503 54 184 1.0 4.0 0.00 0.00 0.00 63 1016.3
20260904115007 54 191 1.0 4.0 0.00 0.00 0.00 65 1016.3
20260904114514 54 189 0.0 2.0 0.00 0.00 0.00 65 1016.2
20260904114010 54 90 0.0 2.0 0.00 0.00 0.00 65 1016.3
20260904113512 55 66 0.0 2.0 0.00 0.00 0.00 64 1016.3
20260904113025 55 66 0.0 2.0 0.00 0.00 0.00 64 1016.2
20260904112515 55 56 0.0 2.0 0.00 0.00 0.00 64 1016.2
20260904112002 55 188 0.0 2.0 0.00 0.00 0.00 63 1016.3
20260904111513 55 183 0.0 2.0 0.00 0.00 0.00 63 1016.2
20260904111007 55 189 1.0 2.0 0.00 0.00 0.00 63 1016.1
20260904110507 56 150 0.0 2.0 0.00 0.00 0.00 62 1016.1
20260904110024 56 173 0.0 2.0 0.00 0.00 0.00 62 1016.1
20260904105514 56 192 0.0 2.0 0.00 0.00 0.00 61 1016.0
20260904105013 56 182 0.0 2.0 0.00 0.00 0.00 61 1015.9
20260904104530 56 129 0.0 2.0 0.00 0.00 0.00 60 1015.8
20260904104007 57 129 0.0 2.0 0.00 0.00 0.00 61 1015.8
20260904103510 57 192 0.0 2.0 0.00 0.00 0.00 59 1015.7
20260904103011 57 191 1.0 2.0 0.00 0.00 0.00 59 1015.7
20260904102508 57 128 0.0 2.0 0.00 0.00 0.00 61 1015.7
20260904102011 57 128 0.0 2.0 0.00 0.00 0.00 59 1015.7
20260904101532 57 206 0.0 2.0 0.00 0.00 0.00 58 1015.6
20260904101021 57 207 0.0 2.0 0.00 0.00 0.00 59 1015.6
20260904100515 57 207 0.0 2.0 0.00 0.00 0.00 60 1015.6
20260904100031 58 181 0.0 2.0 0.00 0.00 0.00 58 1015.6
20260904095507 58 181 0.0 2.0 0.00 0.00 0.00 58 1015.6
20260904095007 58 181 0.0 2.0 0.00 0.00 0.00 59 1015.6
20260904094516 58 181 0.0 2.0 0.00 0.00 0.00 58 1015.6
20260904094012 59 181 0.0 2.0 0.00 0.00 0.00 58 1015.5
20260904093513 59 181 0.0 2.0 0.00 0.00 0.00 59 1015.6
20260904090026 61 182 0.0 2.0 0.00 0.00 0.00 53 1015.3
20260904085514 61 182 0.0 2.0 0.00 0.00 0.00 53 1015.2
20260904085020 61 157 0.0 2.0 0.00 0.00 0.00 53 1015.3
20260904084530 62 164 0.0 2.0 0.00 0.00 0.00 52 1015.4
20260904084018 62 185 1.0 2.0 0.00 0.00 0.00 52 1015.3
20260904083507 62 189 0.0 2.0 0.00 0.00 0.00 51 1015.3
20260904083018 63 189 0.0 2.0 0.00 0.00 0.00 52 1015.3
20260904082511 63 189 0.0 2.0 0.00 0.00 0.00 52 1015.3
20260904082012 63 323 0.0 2.0 0.00 0.00 0.00 52 1015.3
20260904081526 64 323 0.0 2.0 0.00 0.00 0.00 51 1015.3
20260904081016 64 325 0.0 2.0 0.00 0.00 0.00 50 1015.2
20260904080516 64 322 0.0 2.0 0.00 0.00 0.00 49 1015.2
20260904080050 64 327 0.0 2.0 0.00 0.00 0.00 50 1015.2
20260904075506 65 352 0.0 2.0 0.00 0.00 0.00 49 1015.2
20260904075008 64 9 1.0 2.0 0.00 0.00 0.00 45 1015.2
20260904074526 64 53 0.0 2.0 0.00 0.00 0.00 47 1015.2
20260904074014 64 53 0.0 2.0 0.00 0.00 0.00 47 1015.2
20260904073512 64 31 0.0 2.0 0.00 0.00 0.00 46 1015.3
20260904073032 64 95 0.0 2.0 0.00 0.00 0.00 47 1015.4
20260904072519 65 100 0.0 2.0 0.00 0.00 0.00 46 1015.4
20260904072018 65 100 0.0 2.0 0.00 0.00 0.00 46 1015.4
20260904071511 65 121 0.0 2.0 0.00 0.00 0.00 45 1015.4
20260904071008 66 119 0.0 2.0 0.00 0.00 0.00 45 1015.4
20260904070506 66 119 0.0 2.0 0.00 0.00 0.00 45 1015.5
20260904070009 66 113 0.0 2.0 0.00 0.00 0.00 44 1015.6
20260904065504 67 236 0.0 2.0 0.00 0.00 0.00 43 1015.5
20260904065003 67 298 0.0 2.0 0.00 0.00 0.00 43 1015.5
20260904064507 68 61 0.0 2.0 0.00 0.00 0.00 42 1015.6
20260904064010 68 258 0.0 2.0 0.00 0.00 0.00 41 1015.4
20260904063508 68 233 1.0 2.0 0.00 0.00 0.00 41 1015.4
20260904063018 68 59 0.0 2.0 0.00 0.00 0.00 40 1015.4
20260904062503 69 84 0.0 2.0 0.00 0.00 0.00 40 1015.5
20260904062002 69 95 0.0 2.0 0.00 0.00 0.00 41 1015.4
20260904061503 69 101 0.0 5.0 0.00 0.00 0.00 41 1015.4
20260904061003 70 119 1.0 5.0 0.00 0.00 0.00 42 1015.4
20260904060503 70 112 1.0 4.0 0.00 0.00 0.00 43 1015.4
20260904060012 71 104 0.0 2.0 0.00 0.00 0.00 40 1015.1
20260904055512 72 144 0.0 2.0 0.00 0.00 0.00 37 1014.9
20260904055011 73 235 0.0 2.0 0.00 0.00 0.00 34 1014.8
20260904054508 74 285 0.0 3.0 0.00 0.00 0.00 32 1014.7
20260904054003 74 309 0.0 3.0 0.00 0.00 0.00 32 1014.6
20260904053503 74 227 0.0 2.0 0.00 0.00 0.00 32 1014.7
20260904053007 74 241 0.0 7.0 0.00 0.00 0.00 31 1014.7
20260904052506 75 348 0.0 7.0 0.00 0.00 0.00 31 1014.7
20260904052006 75 273 0.0 3.0 0.00 0.00 0.00 32 1014.7
20260904051520 75 306 0.0 3.0 0.00 0.00 0.00 31 1014.7
20260904051011 75 263 0.0 3.0 0.00 0.00 0.00 31 1014.6
20260904050502 75 257 0.0 3.0 0.00 0.00 0.00 31 1014.5
20260904050006 75 5 1.0 2.0 0.00 0.00 0.00 31 1014.5
20260904045504 75 336 0.0 3.0 0.00 0.00 0.00 31 1014.5
20260904045004 75 225 1.0 3.0 0.00 0.00 0.00 31 1014.6
20260904044511 75 243 0.0 2.0 0.00 0.00 0.00 31 1014.6
20260904044007 76 287 0.0 2.0 0.00 0.00 0.00 31 1014.6
20260904043507 76 173 0.0 2.0 0.00 0.00 0.00 31 1014.7
20260904043024 76 285 0.0 2.0 0.00 0.00 0.00 31 1014.7
20260904042506 76 216 0.0 2.0 0.00 0.00 0.00 31 1014.7
20260904042003 76 285 1.0 3.0 0.00 0.00 0.00 31 1014.7
20260904041504 76 205 1.0 3.0 0.00 0.00 0.00 31 1014.6
20260904041004 76 236 0.0 3.0 0.00 0.00 0.00 31 1014.6
20260904040508 76 271 1.0 3.0 0.00 0.00 0.00 31 1014.7
20260904040014 76 349 1.0 2.0 0.00 0.00 0.00 31 1014.7
20260904035513 76 266 0.0 2.0 0.00 0.00 0.00 31 1014.8
20260904035013 76 236 1.0 3.0 0.00 0.00 0.00 31 1014.9